SCP
0 0 0 0 0 0 0 0 0 0 0 0 0 0 0 0 0 0 0 0 0 0 0 0 0 0 0 0 0 0 0 0 0 0 0 0 0 0 0 0 0 0 0
0 0 0 0 0 0 0 0 0 0 0 0 0 0 0 0 0 0 0 0 0 0 0 0 0 0 0 0 0 0 0 0 0 0 0 0 0 0 0 0 0 0 0
0 0 0 0 0 0 0 -0 0 0 0 0 0 0 0 0 0 0 0 0 0 0 0 0 0 0 0 0 0 0 0 0 0 0 0 0 0 0 0 0 0 0 0
0 0 0 0 0 0 -0 0 0 0 0 0 0 0 0 0 0 0 0 0 0 0 0 0 0 0 0 0 0 0 0 0 0 0 0 0 0 0 0 0 0 0 0
0 0 0 0 0 0 0 0 0 0 0 0 0 0 0 0 0 0 0 0 0 0 0 0 0 0 0 0 0 0 0 0 0 0 0 0 0 0 0 0 0 0 0
0 0 0 0 0 0 0 0 0 0 0 0 0 0 0 0 0 0 0 0 0 0 0 0 0 0 0 0 0 0 0 0 0 0 0 0 0 0 0 0 0 0 0
0 0 0 0 0 0 0 0 0 0 0 0 0 0 0 0 0 0 0 0 0 0 0 0 0 0 0 0 0 0 0 0 0 0 0 0 0 0 0 0 0 0 0
0 0 0 0 -0 -0 -0 -0 -0 0 0 0 0 0 0 0 0 0 0 0 0 0 0 0 0 0 0 0 0 0 0 0 0 0 0 0 0 0 0 0 0 0 0
0 0 0 0 0 -0 -0 -0 -0 -0 -0 0 0 0 0 0 0 0 0 0 0 0 0 0 0 0 0 0 0 0 0 0 0 0 0 0 0 0 0 0 0 0 0
0 0 0 -0 -0 -0 -0 -0 -0 -0 -0 0 0 0 0 0 0 -0 0 0 0 0 0 0 0 0 0 0 0 0 0 0 0 0 0 0 0 0 0 0 0 0 0
0 0 0 0 0 0 0 0 0 0 0 0 0 0 0 0 0 0 0 0 0 0 0 0 0 0 0 0 0 0 0 0 0 0 0 0 0 0 0 0 0 0 0
0 0 0 0 0 0 0 0 0 0 0 -0 -0 0 0 0 0 0 0 0 0 0 0 0 0 0 0 0 0 0 0 0 0 0 0 0 0 0 0 0 0 0 0
0 0 0 0 0 0 0 0 0 0 0 0 0 0 0 0 0 0 0 0 0 0 0 0 0 0 0 0 0 0 0 0 0 0 0 0 0 0 0 0 0 0 0
-0 0 0 0 0 0 0 0 0 0 0 0 0 0 0 0 0 0 0 0 0 0 0 0 0 0 0 0 0 0 0 0 0 0 0 0 0 0 0 0 0 0 0
0 0 0 -0 0 0 0 0 0 0 0 0 0 0 -0 0 0 -0 0 0 0 -0 0 0 0 0 0 0 0 0 0 0 0 0 0 0 0 0 0 0 0 0 0
0 0 -0 0 0 0 0 0 0 0 0 0 0 0 -0 0 0 0 -0 -0 -0 -0 -0 -0 -0 0 0 0 -0 0 0 0 0 0 0 0 0 0 0 0 0 0 0
0 0 0 0 -0 -0 -0 -0 -0 -0 0 0 0 0 0 -0 -0 -0 0 0 0 0 0 0 -0 0 0 -0 -0 -0 0 0 0 0 0 0 0 0 0 0 0 0 0
0 0 0 0 -0 -0 -0 -0 -0 0 0 0 0 0 0 0 0 -0 0 -0 0 0 0 0 0 0 0 -0 -0 -0 0 0 0 0 0 0 0 0 0 0 0 0 0
0 0 -0 -0 -0 -0 0 -0 -0 0 0 0 0 0 0 0 0 0 0 0 -0 0 0 0 0 0 0 0 -0 -0 -0 0 0 0 0 0 0 0 0 0 0 0 0
0 0 0 0 0 0 0 0 0 0 0 0 0 0 0 0 0 0 0 0 0 0 -0 0 0 0 0 0 0 0 0 0 0 0 0 0 0 0 0 0 0 0 0
0 0 0 0 0 0 0 0 0 0 0 0 0 0 0 0 0 0 0 0 0 0 0 -0 -0 0 0 0 0 0 0 0 0 0 0 0 0 0 0 0 0 0 0
0 0 0 0 0 0 0 0 0 0 0 0 0 0 0 0 0 0 0 0 0 0 0 0 -0 -0 -0 -0 0 0 0 0 0 0 0 0 0 0 0 0 0 0 0
0 0 0 0 0 0 0 0 0 0 0 0 0 0 0 0 0 0 0 0 0 0 0 0 0 0 -0 -0 -0 0 0 0 0 0 0 0 0 0 0 0 0 0 0
0 0 0 0 0 0 0 0 0 0 0 0 0 0 0 0 0 0 0 0 0 0 0 0 0 0 0 0 -0 0 0 0 0 0 0 0 0 0 0 0 0 0 0
0 0 0 0 0 0 0 0 0 0 0 0 0 0 0 0 0 0 0 0 0 0 0 0 0 0 0 0 0 0 0 0 0 0 0 0 0 0 0 0 0 0 0
0 0 0 0 0 0 0 0 0 0 0 0 0 0 0 0 0 0 0 0 0 0 0 0 0 0 0 0 0 0 0 0 -0 0 0 0 0 0 0 0 0 0 0
Wind_Speed_500mb
34 32 35 31 23 21 30 36 44 46 58 70 85 96 106 107 108 109 105 102 99 98 94 91 90 88 86 80 73 69 63 57 51 41 33 30 28 27 27 28 28 27 26
29 31 44 40 35 27 24 29 34 42 51 58 68 79 84 95 99 105 110 108 107 103 100 97 96 94 91 86 81 79 73 68 62 49 36 23 27 32 34 34 33 32 29
32 42 48 50 50 42 24 29 31 32 37 45 53 61 76 76 78 91 103 107 108 109 103 101 101 98 96 95 91 87 82 77 69 63 34 17 17 27 36 38 37 36 33
43 44 49 57 58 57 45 30 24 25 30 32 42 53 58 69 76 81 84 93 103 109 106 105 105 102 100 99 95 91 88 84 79 71 68 51 26 19 17 43 47 45 43
38 44 49 54 59 60 58 55 47 36 24 19 26 37 45 50 48 61 74 77 79 92 107 108 109 109 106 104 100 96 92 89 85 79 77 71 58 45 29 21 41 55 52
41 46 49 59 55 49 51 52 49 44 38 34 27 26 34 41 52 59 67 71 70 69 87 109 112 112 110 108 104 99 96 93 91 84 79 77 69 67 53 40 32 40 52
47 57 66 61 58 54 53 50 47 44 38 31 25 24 24 30 42 46 58 61 68 71 70 85 111 115 113 110 107 104 101 100 99 95 89 83 78 70 59 54 51 41 44
42 47 49 51 52 53 54 54 52 47 43 38 35 32 30 29 33 37 46 52 62 66 68 75 83 110 114 114 112 110 105 103 102 100 96 92 86 78 72 64 61 50 47
31 36 42 45 48 50 51 51 49 50 53 48 44 40 33 33 36 36 42 43 49 58 62 67 73 79 107 116 115 114 112 111 107 104 101 100 93 87 81 73 66 61 50
31 31 32 38 44 46 47 48 52 53 47 45 46 46 47 41 37 41 44 43 45 47 52 60 66 73 81 100 116 117 116 115 114 112 111 107 103 96 90 83 75 71 63
36 37 37 40 42 44 48 51 52 50 50 52 49 47 47 46 45 41 42 45 47 46 48 54 60 66 76 86 100 116 121 121 119 118 119 113 110 105 101 93 87 81 75
27 27 29 32 37 43 44 44 48 50 52 53 53 54 52 51 49 46 46 45 48 51 50 50 57 64 71 78 91 102 118 127 126 125 124 120 116 114 109 103 97 91 83
22 27 29 28 29 42 47 48 49 50 52 50 49 50 53 53 52 52 50 50 52 49 49 50 54 61 68 75 86 92 102 117 127 128 130 123 122 120 118 112 105 99 93
10 17 23 31 32 38 45 50 51 53 55 54 55 52 51 55 58 57 53 51 49 53 54 51 51 54 63 72 79 91 99 108 114 126 131 126 130 127 125 116 114 106 101
11 16 22 26 32 39 44 48 51 54 59 62 63 64 60 58 60 61 61 59 53 53 54 57 58 56 60 67 74 82 91 104 112 113 124 129 133 131 126 123 120 114 107
19 23 28 31 36 39 46 46 49 54 60 63 65 67 72 71 65 65 69 69 65 61 59 61 58 62 63 66 67 71 81 86 102 114 119 126 126 136 128 127 120 120 114
29 35 38 37 35 38 48 52 54 55 55 56 60 65 71 77 79 80 73 73 75 73 70 66 64 65 65 61 65 67 76 82 89 101 110 120 125 135 131 133 124 124 118
31 39 45 49 47 54 60 63 64 62 61 58 60 65 72 78 81 84 86 83 80 78 77 77 73 74 73 64 59 58 68 84 90 91 97 112 120 128 128 132 130 129 122
41 48 60 69 71 70 69 71 73 74 76 75 78 76 76 77 81 85 91 94 94 93 87 83 82 81 81 79 66 56 65 81 93 91 94 104 112 122 125 126 131 131 127
55 60 61 71 78 80 80 85 92 91 91 89 87 86 86 86 86 86 89 95 98 100 102 100 90 87 89 82 78 64 65 82 89 92 97 102 105 106 115 115 119 128 134
65 70 69 80 87 84 90 97 95 92 80 85 95 98 101 105 103 101 96 95 100 106 107 109 107 99 91 89 84 73 69 83 87 92 98 103 100 103 104 97 112 122 126
53 64 79 88 89 94 91 93 101 94 84 78 89 103 114 120 120 119 116 109 106 107 113 116 118 111 103 93 87 81 77 73 86 91 92 93 92 89 91 89 104 99 108
63 74 80 90 95 95 88 88 100 87 92 104 114 112 107 113 117 118 120 114 118 113 114 112 107 118 109 98 89 84 78 71 82 90 93 94 88 77 82 87 104 87 102
64 73 83 91 102 104 102 95 106 105 105 112 111 104 96 96 94 94 92 88 94 99 95 92 95 93 93 98 91 87 74 68 71 76 90 94 91 77 80 81 97 99 106
64 65 81 93 102 104 103 99 101 103 105 104 101 93 88 86 86 82 81 80 84 83 87 90 84 79 79 87 64 66 65 58 62 71 86 85 82 76 81 87 98 100 99
69 79 85 90 93 90 92 93 86 80 81 86 82 79 81 83 82 84 89 81 79 82 85 90 90 99 93 83 74 65 64 51 43 72 85 83 82 75 79 84 92 94 95
Wind_Direction_500mb
311 335 349 335 320 296 284 274 266 263 255 249 242 240 241 241 240 240 240 239 238 236 233 232 231 229 229 228 227 225 223 222 222 222 224 233 236 237 238 239 235 232 231
345 22 33 24 12 336 305 289 283 274 264 257 254 246 245 244 244 242 242 240 238 236 235 234 233 231 229 227 227 227 223 220 221 216 219 220 233 233 233 229 226 223 219
33 27 28 31 29 20 332 314 308 283 270 267 259 251 244 244 247 244 244 242 240 240 237 237 236 233 232 230 230 227 225 225 220 218 207 198 214 213 226 225 222 216 221
36 25 32 37 36 28 22 2 331 325 297 277 264 259 258 254 256 258 258 254 247 243 240 239 238 236 234 233 232 231 229 225 224 218 220 225 219 186 203 226 224 225 228
38 41 41 45 47 50 49 47 40 26 7 328 295 280 273 263 262 259 261 262 264 252 243 241 240 238 236 234 234 233 231 231 229 225 223 222 226 227 214 210 224 229 233
42 41 41 44 43 37 34 34 33 31 29 20 359 321 299 286 274 276 272 272 269 260 250 242 240 241 240 238 237 234 232 233 233 230 232 233 227 226 222 222 222 230 227
40 36 35 33 29 25 24 23 23 20 13 12 4 345 328 306 292 286 279 275 273 269 264 252 242 239 240 241 241 239 236 233 231 232 233 234 235 239 239 232 230 219 227
37 36 35 33 28 25 21 20 20 21 18 13 357 341 328 315 300 295 290 286 282 279 274 265 255 244 240 239 240 240 240 238 236 233 233 234 234 236 237 235 231 221 224
37 32 25 22 19 19 17 15 14 10 14 12 5 359 343 325 312 301 292 288 288 285 279 274 266 255 246 243 241 240 239 238 237 236 236 236 235 235 235 234 233 231 226
18 18 15 11 7 3 0 358 360 2 2 358 358 357 355 346 328 313 302 293 287 284 283 277 270 265 255 248 245 244 241 239 237 235 235 234 234 234 234 233 233 231 234
8 5 5 3 1 1 358 355 356 357 350 349 349 348 347 347 347 335 318 306 292 285 278 276 271 266 263 258 250 245 244 241 239 237 236 236 235 234 233 232 231 231 230
6 3 5 2 358 357 357 356 351 349 351 350 348 347 345 342 341 342 340 327 311 300 290 276 270 267 262 261 260 254 247 245 242 240 238 236 234 234 234 233 232 231 230
353 354 355 358 354 353 352 351 350 348 346 344 341 338 339 339 338 336 334 337 332 319 301 288 278 272 268 264 262 260 257 252 248 245 243 239 238 236 234 233 232 231 230
341 349 349 349 352 349 345 342 344 344 343 342 339 337 336 335 335 335 329 323 326 328 325 313 293 278 273 269 264 263 260 257 254 250 248 245 242 240 238 235 235 231 231
323 334 340 338 341 338 335 333 333 334 333 334 335 335 333 331 329 330 330 329 322 311 315 319 318 302 284 273 270 266 263 260 258 254 252 248 246 243 241 240 236 235 231
332 335 333 329 330 326 329 324 320 323 324 325 324 323 322 324 327 325 323 325 326 324 314 299 305 306 306 291 276 272 268 264 259 257 254 251 249 247 242 241 239 240 237
325 332 330 323 312 309 317 320 315 314 313 311 312 315 317 318 320 322 323 322 322 322 322 315 303 296 296 298 290 274 271 265 260 259 255 254 252 249 244 241 238 239 237
300 317 323 321 317 312 312 316 313 305 304 300 300 303 306 307 310 313 315 317 318 319 319 315 313 304 296 294 294 278 266 265 262 258 259 256 254 252 247 241 237 236 234
279 302 319 319 317 313 310 312 311 309 303 299 299 299 298 297 298 301 304 308 311 312 313 314 312 308 302 296 289 279 269 262 260 258 256 255 252 253 251 244 239 235 234
278 293 307 311 311 311 310 309 309 309 305 304 301 299 297 295 295 294 295 298 300 303 306 306 307 306 299 297 290 280 268 264 261 258 255 253 254 254 252 245 241 235 232
285 287 299 306 307 307 309 306 307 304 303 302 300 297 296 296 295 293 291 292 292 295 296 298 298 300 299 295 290 282 266 262 257 249 250 252 251 246 245 232 241 240 234
287 293 300 301 302 305 308 307 305 307 302 296 296 296 297 295 293 293 291 289 289 288 289 292 293 293 295 294 289 283 274 262 251 245 245 249 252 245 237 225 232 229 225
297 301 303 304 304 306 307 304 304 303 299 296 294 293 293 293 293 292 291 290 287 286 284 285 286 288 288 291 287 281 275 266 244 245 248 248 253 249 221 225 218 217 217
304 305 305 306 306 307 306 302 301 300 296 293 293 293 292 291 289 287 286 283 282 281 279 278 276 277 280 283 282 280 275 269 255 243 247 244 246 247 236 224 213 211 214
306 307 308 308 307 310 308 308 307 305 300 297 295 294 293 291 290 286 283 278 275 272 274 270 268 271 271 274 275 274 275 270 262 240 236 234 229 231 221 211 205 206 205
310 312 312 312 313 313 313 314 315 313 309 304 300 298 295 294 292 290 289 285 277 275 269 266 264 269 268 268 266 263 268 265 255 232 223 218 219 223 210 204 199 199 201
Wind_Speed_850mb
34 32 35 31 23 21 30 36 44 46 58 70 85 96 106 107 108 109 105 102 99 98 94 91 90 88 86 80 73 69 63 57 51 41 33 30 28 27 27 28 28 27 26
29 31 44 40 35 27 24 29 34 42 51 58 68 79 84 95 99 105 110 108 107 103 100 97 96 94 91 86 81 79 73 68 62 49 36 23 27 32 34 34 33 32 29
32 42 48 50 50 42 24 29 31 32 37 45 53 61 76 76 78 91 103 107 108 109 103 101 101 98 96 95 91 87 82 77 69 63 34 17 17 27 36 38 37 36 33
43 44 49 57 58 57 45 30 24 25 30 32 42 53 58 69 76 81 84 93 103 109 106 105 105 102 100 99 95 91 88 84 79 71 68 51 26 19 17 43 47 45 43
38 44 49 54 59 60 58 55 47 36 24 19 26 37 45 50 48 61 74 77 79 92 107 108 109 109 106 104 100 96 92 89 85 79 77 71 58 45 29 21 41 55 52
41 46 49 59 55 49 51 52 49 44 38 34 27 26 34 41 52 59 67 71 70 69 87 109 112 112 110 108 104 99 96 93 91 84 79 77 69 67 53 40 32 40 52
47 57 66 61 58 54 53 50 47 44 38 31 25 24 24 30 42 46 58 61 68 71 70 85 111 115 113 110 107 104 101 100 99 95 89 83 78 70 59 54 51 41 44
42 47 49 51 52 53 54 54 52 47 43 38 35 32 30 29 33 37 46 52 62 66 68 75 83 110 114 114 112 110 105 103 102 100 96 92 86 78 72 64 61 50 47
31 36 42 45 48 50 51 51 49 50 53 48 44 40 33 33 36 36 42 43 49 58 62 67 73 79 107 116 115 114 112 111 107 104 101 100 93 87 81 73 66 61 50
31 31 32 38 44 46 47 48 52 53 47 45 46 46 47 41 37 41 44 43 45 47 52 60 66 73 81 100 116 117 116 115 114 112 111 107 103 96 90 83 75 71 63
36 37 37 40 42 44 48 51 52 50 50 52 49 47 47 46 45 41 42 45 47 46 48 54 60 66 76 86 100 116 121 121 119 118 119 113 110 105 101 93 87 81 75
27 27 29 32 37 43 44 44 48 50 52 53 53 54 52 51 49 46 46 45 48 51 50 50 57 64 71 78 91 102 118 127 126 125 124 120 116 114 109 103 97 91 83
22 27 29 28 29 42 47 48 49 50 52 50 49 50 53 53 52 52 50 50 52 49 49 50 54 61 68 75 86 92 102 117 127 128 130 123 122 120 118 112 105 99 93
10 17 23 31 32 38 45 50 51 53 55 54 55 52 51 55 58 57 53 51 49 53 54 51 51 54 63 72 79 91 99 108 114 126 131 126 130 127 125 116 114 106 101
11 16 22 26 32 39 44 48 51 54 59 62 63 64 60 58 60 61 61 59 53 53 54 57 58 56 60 67 74 82 91 104 112 113 124 129 133 131 126 123 120 114 107
19 23 28 31 36 39 46 46 49 54 60 63 65 67 72 71 65 65 69 69 65 61 59 61 58 62 63 66 67 71 81 86 102 114 119 126 126 136 128 127 120 120 114
29 35 38 37 35 38 48 52 54 55 55 56 60 65 71 77 79 80 73 73 75 73 70 66 64 65 65 61 65 67 76 82 89 101 110 120 125 135 131 133 124 124 118
31 39 45 49 47 54 60 63 64 62 61 58 60 65 72 78 81 84 86 83 80 78 77 77 73 74 73 64 59 58 68 84 90 91 97 112 120 128 128 132 130 129 122
41 48 60 69 71 70 69 71 73 74 76 75 78 76 76 77 81 85 91 94 94 93 87 83 82 81 81 79 66 56 65 81 93 91 94 104 112 122 125 126 131 131 127
55 60 61 71 78 80 80 85 92 91 91 89 87 86 86 86 86 86 89 95 98 100 102 100 90 87 89 82 78 64 65 82 89 92 97 102 105 106 115 115 119 128 134
65 70 69 80 87 84 90 97 95 92 80 85 95 98 101 105 103 101 96 95 100 106 107 109 107 99 91 89 84 73 69 83 87 92 98 103 100 103 104 97 112 122 126
53 64 79 88 89 94 91 93 101 94 84 78 89 103 114 120 120 119 116 109 106 107 113 116 118 111 103 93 87 81 77 73 86 91 92 93 92 89 91 89 104 99 108
63 74 80 90 95 95 88 88 100 87 92 104 114 112 107 113 117 118 120 114 118 113 114 112 107 118 109 98 89 84 78 71 82 90 93 94 88 77 82 87 104 87 102
64 73 83 91 102 104 102 95 106 105 105 112 111 104 96 96 94 94 92 88 94 99 95 92 95 93 93 98 91 87 74 68 71 76 90 94 91 77 80 81 97 99 106
64 65 81 93 102 104 103 99 101 103 105 104 101 93 88 86 86 82 81 80 84 83 87 90 84 79 79 87 64 66 65 58 62 71 86 85 82 76 81 87 98 100 99
69 79 85 90 93 90 92 93 86 80 81 86 82 79 81 83 82 84 89 81 79 82 85 90 90 99 93 83 74 65 64 51 43 72 85 83 82 75 79 84 92 94 95
Wind_Direction_850mb
311 335 349 335 320 296 284 274 266 263 255 249 242 240 241 241 240 240 240 239 238 236 233 232 231 229 229 228 227 225 223 222 222 222 224 233 236 237 238 239 235 232 231
345 22 33 24 12 336 305 289 283 274 264 257 254 246 245 244 244 242 242 240 238 236 235 234 233 231 229 227 227 227 223 220 221 216 219 220 233 233 233 229 226 223 219
33 27 28 31 29 20 332 314 308 283 270 267 259 251 244 244 247 244 244 242 240 240 237 237 236 233 232 230 230 227 225 225 220 218 207 198 214 213 226 225 222 216 221
36 25 32 37 36 28 22 2 331 325 297 277 264 259 258 254 256 258 258 254 247 243 240 239 238 236 234 233 232 231 229 225 224 218 220 225 219 186 203 226 224 225 228
38 41 41 45 47 50 49 47 40 26 7 328 295 280 273 263 262 259 261 262 264 252 243 241 240 238 236 234 234 233 231 231 229 225 223 222 226 227 214 210 224 229 233
42 41 41 44 43 37 34 34 33 31 29 20 359 321 299 286 274 276 272 272 269 260 250 242 240 241 240 238 237 234 232 233 233 230 232 233 227 226 222 222 222 230 227
40 36 35 33 29 25 24 23 23 20 13 12 4 345 328 306 292 286 279 275 273 269 264 252 242 239 240 241 241 239 236 233 231 232 233 234 235 239 239 232 230 219 227
37 36 35 33 28 25 21 20 20 21 18 13 357 341 328 315 300 295 290 286 282 279 274 265 255 244 240 239 240 240 240 238 236 233 233 234 234 236 237 235 231 221 224
37 32 25 22 19 19 17 15 14 10 14 12 5 359 343 325 312 301 292 288 288 285 279 274 266 255 246 243 241 240 239 238 237 236 236 236 235 235 235 234 233 231 226
18 18 15 11 7 3 0 358 360 2 2 358 358 357 355 346 328 313 302 293 287 284 283 277 270 265 255 248 245 244 241 239 237 235 235 234 234 234 234 233 233 231 234
8 5 5 3 1 1 358 355 356 357 350 349 349 348 347 347 347 335 318 306 292 285 278 276 271 266 263 258 250 245 244 241 239 237 236 236 235 234 233 232 231 231 230
6 3 5 2 358 357 357 356 351 349 351 350 348 347 345 342 341 342 340 327 311 300 290 276 270 267 262 261 260 254 247 245 242 240 238 236 234 234 234 233 232 231 230
353 354 355 358 354 353 352 351 350 348 346 344 341 338 339 339 338 336 334 337 332 319 301 288 278 272 268 264 262 260 257 252 248 245 243 239 238 236 234 233 232 231 230
341 349 349 349 352 349 345 342 344 344 343 342 339 337 336 335 335 335 329 323 326 328 325 313 293 278 273 269 264 263 260 257 254 250 248 245 242 240 238 235 235 231 231
323 334 340 338 341 338 335 333 333 334 333 334 335 335 333 331 329 330 330 329 322 311 315 319 318 302 284 273 270 266 263 260 258 254 252 248 246 243 241 240 236 235 231
332 335 333 329 330 326 329 324 320 323 324 325 324 323 322 324 327 325 323 325 326 324 314 299 305 306 306 291 276 272 268 264 259 257 254 251 249 247 242 241 239 240 237
325 332 330 323 312 309 317 320 315 314 313 311 312 315 317 318 320 322 323 322 322 322 322 315 303 296 296 298 290 274 271 265 260 259 255 254 252 249 244 241 238 239 237
300 317 323 321 317 312 312 316 313 305 304 300 300 303 306 307 310 313 315 317 318 319 319 315 313 304 296 294 294 278 266 265 262 258 259 256 254 252 247 241 237 236 234
279 302 319 319 317 313 310 312 311 309 303 299 299 299 298 297 298 301 304 308 311 312 313 314 312 308 302 296 289 279 269 262 260 258 256 255 252 253 251 244 239 235 234
278 293 307 311 311 311 310 309 309 309 305 304 301 299 297 295 295 294 295 298 300 303 306 306 307 306 299 297 290 280 268 264 261 258 255 253 254 254 252 245 241 235 232
285 287 299 306 307 307 309 306 307 304 303 302 300 297 296 296 295 293 291 292 292 295 296 298 298 300 299 295 290 282 266 262 257 249 250 252 251 246 245 232 241 240 234
287 293 300 301 302 305 308 307 305 307 302 296 296 296 297 295 293 293 291 289 289 288 289 292 293 293 295 294 289 283 274 262 251 245 245 249 252 245 237 225 232 229 225
297 301 303 304 304 306 307 304 304 303 299 296 294 293 293 293 293 292 291 290 287 286 284 285 286 288 288 291 287 281 275 266 244 245 248 248 253 249 221 225 218 217 217
304 305 305 306 306 307 306 302 301 300 296 293 293 293 292 291 289 287 286 283 282 281 279 278 276 277 280 283 282 280 275 269 255 243 247 244 246 247 236 224 213 211 214
306 307 308 308 307 310 308 308 307 305 300 297 295 294 293 291 290 286 283 278 275 272 274 270 268 271 271 274 275 274 275 270 262 240 236 234 229 231 221 211 205 206 205
310 312 312 312 313 313 313 314 315 313 309 304 300 298 295 294 292 290 289 285 277 275 269 266 264 269 268 268 266 263 268 265 255 232 223 218 219 223 210 204 199 199 201